sat.trackr.live / text

‹ back to catalog

ENMAP

NORAD 52159 · 2022-033C

PAYLOAD ACTIVE UNKNOWN

§ Identity

Operator
Country
GER
Launch date
2022-04-01
Launch site
AFETR
Launch vehicle
Mass (kg)
RCS (m²)

External: N2YO · Heavens-Above · Gunter

§ Orbital elements

Epoch: 2026-05-25T05:39:51.073920Z

Period
97.63 min
Inclination
97.9784°
Eccentricity
0.0001405
Mean motion
14.74962731 rev/d
Perigee alt
644.3 km
Apogee alt
646.3 km
Semi-major
7,023.4 km
B*
-1.9755e-5
RAAN
227.8112°
Arg perigee
84.7771°
Mean anomaly
275.3598°
Rev number
22,327

§ Raw data

ENMAP1 52159U 22033C   26145.23600780 -.00000183  00000+0 -19755-4 0  99902 52159  97.9784 227.8112 0001405  84.7771 275.3598 14.74962731223274

JSON: /api/v1/satellites/52159 · /tle

For live sub-satellite position, see the globe view (requires WebGL).

§ Visibility from observer

Set your observer location to see the next 7 days of passes ≥ 10°. The values pass through the URL so the page stays shareable.

No JS? Fill the form by hand. The geolocation button needs JavaScript.

§ Radio — SatNOGS DB

ModeDescriptionDownlinkUplink
BPSK S band telemetry 2.268 GHz

1 transmitter · refreshed weekly from db.satnogs.org